Weather History for Sturgeon Bay, WI

Change the Weather History Date:

Wednesday, February 8, 2012

  Actual Average Record
Temperature  
Mean Temperature 24 °F -  
Max Temperature 33 °F 26 °F 46 °F (1991)
Min Temperature 15 °F 8 °F -19 °F (1934)
Degree Days  
Heating Degree Days 41    
Moisture  
Dew Point 6 °F    
Average Humidity 50    
Maximum Humidity 86    
Minimum Humidity 25    
Precipitation  
Precipitation 0.00 in - - ()
Sea Level Pressure  
Sea Level Pressure 30.27 in    
Wind  
Wind Speed 8 mph (WSW)    
Max Wind Speed 16 mph    
Max Gust Speed 20 mph    
Visibility 10 miles    
Events      
Averages and records for this station are not official NWS values.
T = Trace of Precipitation, MM = Missing Value Source: NWS Daily Summary

Daily Weather History Graph

Daily Weather History Graph

Search for Another Location

Airport:

Trip Planner

Search our weather history database for the weather conditions in past years. The results will help you decide how hot, cold, wet, or windy it might be!

Date:

Astronomy

Feb. 08, 2012 Rise Set
Actual Time 7:00 AM CST 5:07 PM CST
Civil Twilight 6:30 AM CST 5:38 PM CST
Nautical Twilight 5:55 AM CST 6:12 PM CST
Astronomical Twilight 5:21 AM CST 6:46 PM CST
Moon 6:32 PM CST (2/8) 6:59 AM CST (2/8)
Length of Visible Light 11h 07m
Length of Day
10h 06m
Full, 99% of the Moon is Illuminated
Feb 8
Full
Feb 14
Last Quarter
Feb 21
New
Feb 29
First Quarter
Mar 8
Full

Hourly Weather History & Observations

Time (CST) Temp. Windchill Dew Point Humidity Pressure Visibility Wind Dir Wind Speed Gust Speed Precip Events Conditions
12:15 AM 19.4 °F 12.8 °F 12.2 °F 74% 30.40 in 10.0 mi West 4.6 mph - N/A   Clear
12:35 AM 19.4 °F 12.8 °F 14.0 °F 80% 30.40 in 10.0 mi West 4.6 mph - N/A   Clear
12:55 AM 19.4 °F 14.3 °F 14.0 °F 80% 30.40 in 10.0 mi West 3.5 mph - N/A   Clear
1:15 AM 19.4 °F 12.8 °F 12.2 °F 74% 30.40 in 10.0 mi West 4.6 mph - N/A   Clear
1:35 AM 19.4 °F 12.8 °F 14.0 °F 80% 30.39 in 10.0 mi West 4.6 mph - N/A   Clear
1:55 AM 19.4 °F 12.8 °F 14.0 °F 80% 30.39 in 10.0 mi WSW 4.6 mph - N/A   Clear
2:15 AM 17.6 °F 9.3 °F 14.0 °F 86% 30.38 in 10.0 mi WSW 5.8 mph - N/A   Clear
2:35 AM 17.6 °F 12.3 °F 14.0 °F 86% 30.37 in 10.0 mi WSW 3.5 mph - N/A   Clear
3:15 AM 17.6 °F 9.3 °F 14.0 °F 86% 30.36 in 10.0 mi West 5.8 mph - N/A   Clear
3:35 AM 17.6 °F 10.7 °F 12.2 °F 79% 30.35 in 10.0 mi West 4.6 mph - N/A   Clear
3:55 AM 17.6 °F 10.7 °F 12.2 °F 79% 30.34 in 10.0 mi West 4.6 mph - N/A   Clear
4:15 AM 17.6 °F 9.3 °F 12.2 °F 79% 30.34 in 10.0 mi West 5.8 mph - N/A   Clear
4:35 AM 17.6 °F 9.3 °F 10.4 °F 73% 30.34 in 10.0 mi West 5.8 mph - N/A   Clear
4:55 AM 17.6 °F 10.7 °F 8.6 °F 68% 30.34 in 10.0 mi West 4.6 mph - N/A   Clear
5:15 AM 15.8 °F 7.2 °F 10.4 °F 79% 30.34 in 10.0 mi WSW 5.8 mph - N/A   Clear
5:35 AM 15.8 °F 7.2 °F 8.6 °F 73% 30.34 in 10.0 mi WSW 5.8 mph - N/A   Clear
5:55 AM 15.8 °F 7.2 °F 8.6 °F 73% 30.33 in 10.0 mi WSW 5.8 mph - N/A   Clear
6:15 AM 15.8 °F 7.2 °F 8.6 °F 73% 30.33 in 10.0 mi WSW 5.8 mph - N/A   Clear
6:35 AM 15.8 °F 6.1 °F 6.8 °F 68% 30.33 in 10.0 mi WSW 6.9 mph - N/A   Clear
6:55 AM 15.8 °F 6.1 °F 6.8 °F 68% 30.33 in 10.0 mi WSW 6.9 mph - N/A   Clear
7:15 AM 15.8 °F 5.1 °F 6.8 °F 68% 30.33 in 10.0 mi WSW 8.1 mph - N/A   Clear
7:35 AM 15.8 °F 5.1 °F 6.8 °F 68% 30.33 in 10.0 mi WSW 8.1 mph - N/A   Clear
7:55 AM 17.6 °F 6.4 °F 8.6 °F 68% 30.33 in 10.0 mi WSW 9.2 mph - N/A   Clear
8:15 AM 17.6 °F 6.4 °F 8.6 °F 68% 30.33 in 10.0 mi WSW 9.2 mph - N/A   Clear
8:35 AM 19.4 °F 7.2 °F 8.6 °F 63% 30.32 in 10.0 mi WSW 11.5 mph - N/A   Clear
8:55 AM 19.4 °F 7.9 °F 6.8 °F 58% 30.32 in 10.0 mi WSW 10.4 mph - N/A   Clear
9:15 AM 21.2 °F 9.5 °F 6.8 °F 54% 30.32 in 10.0 mi WSW 11.5 mph - N/A   Clear
9:35 AM 21.2 °F 9.5 °F 5.0 °F 50% 30.32 in 10.0 mi WSW 11.5 mph - N/A   Clear
9:55 AM 23.0 °F 11.1 °F 3.2 °F 43% 30.31 in 10.0 mi WSW 12.7 mph - N/A   Clear
10:15 AM 24.8 °F 14.0 °F 3.2 °F 40% 30.30 in 10.0 mi WSW 11.5 mph - N/A   Clear
10:35 AM 26.6 °F 16.2 °F 3.2 °F 37% 30.30 in 10.0 mi WSW 11.5 mph - N/A   Clear
10:55 AM 26.6 °F 15.7 °F 1.4 °F 34% 30.29 in 10.0 mi West 12.7 mph - N/A   Clear
11:15 AM 26.6 °F 15.7 °F 1.4 °F 34% 30.28 in 10.0 mi West 12.7 mph - N/A   Clear
11:35 AM 28.4 °F 18.0 °F 1.4 °F 31% 30.27 in 10.0 mi WSW 12.7 mph - N/A   Clear
11:55 AM 28.4 °F 18.0 °F 3.2 °F 34% 30.26 in 10.0 mi WSW 12.7 mph - N/A   Clear
12:15 PM 30.2 °F 20.8 °F 1.4 °F 29% 30.26 in 10.0 mi West 11.5 mph - N/A   Clear
12:35 PM 30.2 °F 20.2 °F 3.2 °F 32% 30.24 in 10.0 mi WSW 12.7 mph - N/A   Clear
12:55 PM 30.2 °F 20.2 °F 3.2 °F 32% 30.23 in 10.0 mi WSW 12.7 mph - N/A   Clear
1:15 PM 32.0 °F 22.1 °F 3.2 °F 30% 30.22 in 10.0 mi WSW 13.8 mph - N/A   Clear
1:35 PM 33.8 °F 23.9 °F 3.2 °F 28% 30.21 in 10.0 mi WSW 15.0 mph - N/A   Clear
1:55 PM 33.8 °F 24.3 °F 3.2 °F 28% 30.21 in 10.0 mi WSW 13.8 mph - N/A   Clear
2:15 PM 33.8 °F 24.8 °F 3.2 °F 28% 30.20 in 10.0 mi WSW 12.7 mph - N/A   Clear
2:35 PM 33.8 °F 23.5 °F 3.2 °F 28% 30.20 in 10.0 mi WSW 16.1 mph - N/A   Clear
2:55 PM 33.8 °F 23.9 °F 1.4 °F 25% 30.19 in 10.0 mi WSW 15.0 mph - N/A   Clear
3:15 PM 33.8 °F 23.9 °F 3.2 °F 28% 30.19 in 10.0 mi WSW 15.0 mph - N/A   Clear
3:35 PM 33.8 °F 24.3 °F 1.4 °F 25% 30.18 in 10.0 mi WSW 13.8 mph - N/A   Clear
3:55 PM 33.8 °F 23.9 °F 1.4 °F 25% 30.18 in 10.0 mi WSW 15.0 mph 19.6 mph N/A   Clear
4:15 PM 33.8 °F 24.8 °F 3.2 °F 28% 30.18 in 10.0 mi WSW 12.7 mph - N/A   Clear
4:35 PM 33.8 °F 25.3 °F 3.2 °F 28% 30.17 in 10.0 mi WSW 11.5 mph 19.6 mph N/A   Clear
4:55 PM 32.0 °F 23.0 °F 3.2 °F 30% 30.18 in 10.0 mi WSW 11.5 mph - N/A   Clear
5:15 PM 30.2 °F 20.8 °F 3.2 °F 32% 30.17 in 10.0 mi WSW 11.5 mph - N/A   Clear
5:35 PM 30.2 °F 21.3 °F 3.2 °F 32% 30.17 in 10.0 mi WSW 10.4 mph - N/A   Clear
5:55 PM 30.2 °F 20.8 °F 3.2 °F 32% 30.17 in 10.0 mi WSW 11.5 mph - N/A   Clear
6:15 PM 30.2 °F 20.2 °F 3.2 °F 32% 30.16 in 10.0 mi WSW 12.7 mph - N/A   Clear
6:35 PM 30.2 °F 19.8 °F 1.4 °F 29% 30.17 in 10.0 mi WSW 13.8 mph 19.6 mph N/A   Clear
6:55 PM 30.2 °F 19.8 °F 1.4 °F 29% 30.16 in 10.0 mi WSW 13.8 mph - N/A   Clear
7:15 PM 28.4 °F 17.5 °F 1.4 °F 31% 30.16 in 10.0 mi WSW 13.8 mph - N/A   Clear
7:35 PM 28.4 °F 18.0 °F 1.4 °F 31% 30.16 in 10.0 mi WSW 12.7 mph - N/A   Clear
7:55 PM 28.4 °F 18.0 °F 3.2 °F 34% 30.16 in 10.0 mi WSW 12.7 mph - N/A   Clear
8:15 PM 26.6 °F 16.2 °F 3.2 °F 37% 30.16 in 10.0 mi West 11.5 mph 18.4 mph N/A   Clear
8:35 PM 26.6 °F 15.7 °F 3.2 °F 37% 30.16 in 10.0 mi West 12.7 mph - N/A   Clear
8:55 PM 26.6 °F 16.8 °F 3.2 °F 37% 30.15 in 10.0 mi WSW 10.4 mph 16.1 mph N/A   Clear
9:15 PM 26.6 °F 15.7 °F 3.2 °F 37% 30.15 in 10.0 mi WSW 12.7 mph - N/A   Clear
9:35 PM 26.6 °F 15.7 °F 3.2 °F 37% 30.15 in 10.0 mi West 12.7 mph - N/A   Clear
9:55 PM 26.6 °F 15.2 °F 3.2 °F 37% 30.15 in 10.0 mi West 13.8 mph 17.3 mph N/A   Clear
10:15 PM 24.8 °F 14.0 °F 5.0 °F 43% 30.15 in 10.0 mi West 11.5 mph - N/A   Clear
10:35 PM 24.8 °F 14.0 °F 5.0 °F 43% 30.15 in 10.0 mi West 11.5 mph - N/A   Clear
10:55 PM 24.8 °F 14.0 °F 6.8 °F 46% 30.15 in 10.0 mi West 11.5 mph - N/A   Clear
11:15 PM 24.8 °F 14.0 °F 5.0 °F 43% 30.14 in 10.0 mi West 11.5 mph - N/A   Clear
11:55 PM 24.8 °F 14.6 °F 6.8 °F 46% 30.14 in 10.0 mi WSW 10.4 mph - N/A   Clear